Location: Unspecified
(0.0000°N, 0.0000°E)
Time: 18:26:56
(UTC+00:00)

Vanguard 1 Rocket - Pass Details

Date: 19 April 2026
Orbit: 655 x 4212 km, 34.3° (Epoch: 17 May)

Event Time Altitude Azimuth Distance (km) Brightness Sun altitude
Rises 02:17:21 0° 316° (NW) 7,855 12.0 -53.9°
Reaches altitude 10° 02:25:33 10° 330° (NNW) 6,217 11.5 -52.0°
Maximum altitude 02:37:46 22° 13° (NNE) 4,065 10.8 -49.1°
Drops below altitude 10° 02:45:46 10° 60° (ENE) 3,967 11.2 -47.2°
Sets 02:49:20 0° 76° (ENE) 4,487 11.7 -46.3°
